Temperature
29 29 30 30 30 30 30 30 30 30 29 29 29 29 28 27 26 26 25 25 24 23 22 22 22 21 21 21 20 20 20 19 19 19 19 18 18 18 18 18 18 18 18 18
27 29 29 29 29 30 30 30 30 30 29 29 28 28 27 27 26 25 24 23 22 22 21 21 20 20 20 20 20 20 19 19 19 19 18 18 18 18 18 18 18 18 18 17
26 28 28 27 28 29 29 29 29 28 28 28 27 26 26 26 25 24 23 22 21 21 20 20 20 20 19 19 19 19 19 19 18 18 18 18 18 18 18 17 17 17 17 17
25 26 25 27 29 29 28 29 29 28 27 27 26 26 25 24 24 23 22 21 20 20 20 19 19 19 19 18 19 18 18 18 18 18 18 17 17 17 17 17 17 17 17 17
24 25 25 27 28 28 27 26 27 27 26 26 25 25 24 23 23 22 21 20 20 19 19 19 19 18 18 18 18 18 18 18 18 17 17 17 17 17 17 17 17 17 17 17
24 23 24 25 27 27 27 25 25 25 24 24 24 24 23 22 21 21 20 20 19 19 19 18 18 18 18 17 17 17 17 17 17 17 17 17 17 17 17 16 16 16 16 16
23 23 24 26 26 26 24 23 23 23 23 22 22 22 21 21 20 20 19 19 19 18 18 18 18 17 17 17 17 17 17 17 17 17 17 17 16 16 16 16 16 16 16 16
22 22 23 24 24 23 22 22 22 22 21 21 20 20 20 20 19 19 19 18 18 18 17 17 17 17 16 16 16 16 16 16 16 16 16 16 16 16 16 16 16 16 15 15
22 22 22 22 21 21 21 21 21 21 20 20 19 19 19 19 18 18 18 18 17 17 17 16 16 16 16 15 15 16 16 16 16 16 16 16 16 15 15 15 15 15 15 15
21 21 22 21 20 20 20 20 20 20 19 19 19 19 18 18 18 17 17 17 17 16 16 16 16 15 15 15 15 15 15 15 15 15 15 15 15 15 15 15 15 15 15 15
20 21 20 20 19 19 19 19 19 19 19 18 18 18 18 17 17 17 16 16 16 16 15 15 15 15 15 15 15 15 14 15 15 15 14 14 14 14 14 14 14 14 14 14
20 20 20 19 19 18 18 18 18 18 18 17 17 17 17 16 16 16 16 15 15 15 15 14 14 14 14 14 14 14 14 14 14 14 14 14 14 14 14 14 14 14 14 14
19 19 18 18 18 18 18 18 17 17 17 17 16 16 16 16 15 15 15 15 14 14 14 14 14 14 14 14 14 13 13 13 13 13 13 14 14 14 13 13 13 13 13 13
18 17 17 17 17 17 17 17 17 17 16 16 16 16 15 15 15 15 14 14 14 14 13 13 13 13 13 13 13 13 13 13 13 13 13 13 13 13 13 13 13 13 13 13
17 17 17 17 17 17 17 16 16 16 16 15 15 15 15 14 14 14 14 13 13 13 13 13 13 13 13 13 13 13 13 13 13 13 13 13 13 13 13 13 13 13 12 12
17 17 16 16 16 16 16 16 16 15 15 15 15 14 14 14 13 13 13 13 13 13 13 12 12 12 12 12 12 12 12 12 12 12 12 13 12 12 12 12 12 12 12 12
16 16 16 16 16 15 15 15 15 15 14 14 14 14 13 13 13 13 12 12 12 12 12 12 12 12 12 12 12 12 12 12 12 12 12 12 12 12 12 12 12 12 11 11
16 15 15 15 15 15 14 14 14 14 14 13 13 13 13 12 12 12 12 12 12 12 12 12 12 12 12 12 12 12 12 12 12 12 12 12 12 12 12 12 12 11 11 11
15 15 14 14 14 14 14 14 14 13 13 13 13 12 12 12 12 12 12 12 11 11 11 11 12 12 12 12 12 12 12 12 12 12 12 12 12 12 12 11 11 11 11 11
14 14 14 14 14 14 14 13 13 13 13 12 12 12 12 12 12 12 12 11 11 11 11 11 11 11 12 12 12 12 12 12 12 12 12 12 11 11 11 11 11 11 10 10
14 14 14 13 13 13 13 13 13 13 12 12 12 12 12 12 12 11 11 11 11 11 11 11 11 11 11 12 12 12 12 12 12 11 11 11 11 11 11 11 11 10 10 10
13 13 13 13 13 13 13 13 12 12 12 12 12 12 11 11 11 11 11 11 11 11 11 11 11 11 11 11 11 11 12 11 11 11 11 11 11 11 10 10 10 10 10 10
13 13 13 12 12 12 12 12 12 12 12 11 11 11 11 11 11 11 11 11 11 11 11 11 11 11 11 11 11 11 11 11 11 11 11 11 10 10 10 10 10 9 9 9
12 12 12 12 12 12 12 12 12 12 11 11 12 11 11 11 11 11 11 11 11 11 11 11 11 11 11 11 11 11 10 10 10 10 10 10 10 10 9 9 9 9 9 8
12 12 12 12 12 12 12 12 11 12 12 12 12 12 11 11 11 11 11 11 11 11 10 10 10 10 10 10 10 10 10 10 10 10 10 9 9 9 9 9 8 8 8 8
12 12 12 12 12 12 12 12 12 12 12 12 12 11 11 11 11 11 11 11 10 10 10 10 10 10 10 10 10 10 10 10 9 9 9 9 9 9 8 8 8 8 7 7
12 12 12 12 12 12 12 12 12 12 12 12 11 11 11 11 11 11 11 10 10 10 10 10 10 10 10 10 10 10 9 9 9 9 9 8 8 8 8 8 7 7 7 7
Wind_Speed
16 15 15 14 14 14 15 15 14 12 9 3 1 1 4 6 6 5 5 5 6 6 4 4 3 3 3 2 2 3 4 5 6 6 5 5 5 5 5 5 5 4 4 4
17 18 17 17 16 15 15 15 13 13 9 2 2 2 3 4 5 4 4 3 5 5 5 4 3 2 2 2 1 2 3 3 3 4 5 5 5 4 4 4 4 4 4 3
14 16 16 16 14 13 12 11 10 9 4 1 2 3 2 3 3 4 3 3 4 4 4 3 2 2 2 1 2 1 1 2 3 3 4 4 4 4 4 4 3 3 3 3
13 14 17 11 7 8 8 9 6 4 3 2 3 3 3 3 3 3 3 3 3 2 2 1 1 1 2 1 1 2 2 2 2 2 3 3 3 3 3 2 3 3 2 2
10 14 15 10 6 6 6 6 5 4 4 3 4 3 2 4 3 2 2 3 2 2 2 1 1 1 1 1 0 1 1 1 2 2 3 3 3 3 3 3 3 4 3 3
11 13 12 6 4 5 5 5 4 5 6 5 5 4 2 5 5 3 3 3 2 1 2 1 1 1 1 2 1 1 1 1 1 2 3 3 3 2 2 3 4 3 3 3
14 14 9 3 5 5 6 1 5 5 5 6 6 4 3 3 3 3 2 2 1 1 2 1 1 1 1 1 1 1 1 1 1 1 2 3 2 2 2 2 3 3 3 3
11 13 7 6 5 3 3 4 5 5 5 5 6 6 5 2 2 2 1 1 1 1 1 1 1 1 1 1 1 1 0 1 1 1 2 2 2 2 2 2 3 3 4 4
3 2 3 6 6 6 5 5 5 5 5 5 5 5 3 1 1 1 2 2 1 1 1 1 0 1 1 1 1 1 1 0 1 1 1 1 1 2 2 2 3 3 3 3
4 2 3 4 5 6 7 7 7 6 6 6 6 7 5 1 1 1 2 2 2 1 1 1 1 1 1 1 0 0 0 0 1 1 1 1 1 1 1 1 1 1 2 1
7 6 5 4 4 6 7 7 7 6 6 6 6 6 3 1 1 1 2 2 2 2 1 1 0 0 1 0 0 0 1 1 1 1 2 2 1 0 0 1 1 2 1 1
7 5 5 4 4 5 6 6 7 7 7 5 4 4 3 2 2 1 2 3 2 2 3 2 1 1 1 1 0 1 1 1 2 1 1 2 3 2 5 3 3 3 2 1
5 5 6 7 7 6 6 6 7 7 6 5 4 3 3 2 2 2 2 2 3 3 2 2 1 1 1 1 1 1 1 2 2 2 1 1 1 2 2 2 2 2 1 1
5 5 7 7 7 6 6 7 7 5 4 4 3 2 2 2 2 3 3 3 3 3 3 2 2 2 2 1 2 2 2 2 2 2 1 1 1 1 2 2 1 1 0 2
5 6 7 6 6 6 6 6 5 4 3 3 3 2 1 1 2 3 3 3 3 3 3 2 2 2 2 2 2 3 2 2 2 1 1 1 1 1 1 1 1 1 1 1
7 6 6 6 6 6 6 5 5 4 4 3 2 2 2 1 1 2 2 2 2 3 3 3 3 3 2 2 1 2 2 2 2 1 1 0 0 0 1 1 0 0 1 1
6 6 5 6 5 5 5 5 4 4 3 3 2 2 2 1 1 2 2 2 2 2 1 1 2 2 1 1 1 2 2 2 3 1 1 1 1 1 1 1 0 0 0 1
4 4 3 3 3 4 4 4 4 3 2 2 1 1 2 2 2 2 2 2 2 3 2 2 1 1 1 2 2 1 1 2 1 1 1 1 1 1 1 1 1 1 2 2
1 1 1 2 2 2 3 3 3 3 2 2 2 2 2 1 1 1 2 3 3 3 3 3 3 1 0 1 1 2 2 2 2 1 1 1 1 2 1 0 1 1 0 0
1 1 1 1 2 2 2 2 2 1 1 1 1 2 2 2 1 2 2 2 2 3 2 3 2 2 1 1 1 1 1 1 1 1 1 1 0 0 1 1 1 1 1 1
2 2 2 2 2 2 2 2 1 1 1 1 1 1 1 1 1 1 1 2 2 3 2 2 2 2 3 2 1 0 1 1 1 1 1 1 2 2 2 2 2 2 1 1
3 2 2 3 3 3 3 2 2 1 1 1 1 1 1 1 1 2 2 2 2 3 2 2 3 5 5 4 1 1 2 2 2 2 1 1 1 1 1 1 1 1 1 1
2 2 2 2 2 3 3 3 2 1 1 1 0 1 1 1 1 1 1 2 2 3 3 4 5 5 5 3 2 2 3 3 2 2 2 2 2 2 2 2 2 2 1 1
1 1 2 1 1 2 3 3 2 1 1 1 1 1 1 0 1 1 2 4 4 4 3 4 4 4 3 2 2 2 3 2 2 2 2 2 2 2 2 2 2 2 3 3
1 1 2 1 1 0 0 0 1 1 1 1 1 1 1 1 1 2 3 4 5 3 2 3 2 0 1 2 2 2 2 3 3 3 3 2 2 2 2 2 2 2 2 2
1 0 0 0 1 0 0 1 1 0 1 1 1 1 1 2 2 2 2 2 3 2 1 1 1 1 0 1 1 2 2 3 2 2 2 2 2 2 2 2 2 2 2 2
2 1 1 1 1 1 0 0 0 0 0 0 0 1 2 2 2 2 2 2 1 1 1 0 0 1 1 1 2 2 2 2 2 2 2 2 2 2 2 1 1 1 2 2
Wind_Direction
278 276 276 277 271 264 263 265 268 267 259 258 306 53 93 101 102 101 101 100 90 87 73 73 80 93 108 135 162 167 168 183 187 187 191 197 200 199 198 200 210 209 215 213
279 275 272 274 274 270 266 265 266 270 273 310 67 46 89 107 117 112 92 91 94 90 81 66 66 74 82 119 138 155 169 169 166 184 190 194 197 200 205 204 208 209 209 209
275 279 277 268 270 267 267 277 277 275 286 334 37 35 43 89 112 112 118 92 92 95 92 78 60 85 91 83 126 140 155 158 166 183 192 197 205 200 208 208 200 204 203 205
271 275 266 267 285 283 275 280 298 310 354 18 1 21 60 83 84 104 117 106 92 91 96 98 70 61 104 115 141 154 160 160 169 186 190 194 198 198 192 185 184 199 211 196
266 264 262 258 270 278 280 284 334 350 352 3 5 3 54 69 57 86 113 112 118 134 131 108 97 78 109 122 157 191 179 167 182 190 199 196 191 188 186 191 192 201 197 201
257 264 265 269 327 330 288 259 11 13 4 351 330 292 354 30 34 45 82 97 103 141 132 119 107 120 149 168 185 231 234 218 224 211 199 195 194 195 202 205 208 211 195 200
250 258 261 303 342 318 268 308 8 9 10 4 353 342 348 25 38 39 59 73 81 156 151 126 114 115 171 233 253 273 277 244 230 225 202 189 186 188 189 206 202 209 205 216
246 252 258 6 355 359 26 15 5 4 13 8 1 354 346 14 27 19 10 3 344 49 98 104 140 156 218 286 327 341 293 202 195 214 239 198 164 183 193 206 215 214 218 225
281 267 37 18 20 11 2 355 349 345 351 348 333 330 325 330 312 321 336 317 308 336 3 53 115 190 219 267 332 325 332 298 224 221 198 154 176 188 193 200 231 228 222 224
291 272 335 356 356 344 354 350 340 341 339 333 324 313 305 310 291 310 319 323 310 288 266 290 296 280 248 238 285 179 236 264 218 194 195 169 200 209 209 197 225 238 228 225
261 275 295 309 334 333 334 333 329 334 338 338 332 326 328 347 340 340 1 348 344 340 306 276 277 304 277 295 50 93 250 256 244 220 209 183 161 128 146 79 203 213 242 203
271 286 288 292 308 313 315 322 329 332 334 334 337 332 329 337 352 11 7 359 348 330 309 299 303 288 292 316 305 234 248 257 257 247 222 184 162 123 65 73 97 112 109 106
311 317 305 301 303 308 309 312 316 314 320 325 332 336 331 331 348 1 2 341 327 319 315 312 311 298 269 219 229 244 245 259 270 275 256 216 179 167 153 94 86 75 89 142
324 322 298 295 302 311 311 309 301 306 326 330 328 330 339 351 355 347 336 332 326 323 315 310 297 289 284 235 216 233 241 241 231 227 239 224 205 200 186 180 158 141 166 178
299 292 285 296 302 303 300 299 307 319 333 331 328 332 358 11 7 354 350 344 332 324 320 311 303 301 294 264 231 237 242 248 239 238 238 214 209 201 177 153 155 153 157 151
287 282 282 288 295 298 297 301 310 316 322 326 324 347 2 14 19 3 2 358 336 322 327 327 318 309 291 276 255 235 220 202 216 233 271 55 139 187 155 109 14 39 96 99
278 274 277 283 288 296 308 314 312 313 317 319 324 330 340 3 21 16 18 13 15 359 336 306 286 281 265 256 249 231 207 178 168 173 206 213 220 218 177 154 209 204 130 129
265 270 274 284 295 309 317 322 327 331 325 325 4 15 23 35 27 28 12 21 29 18 354 339 341 308 209 187 207 212 188 180 187 203 188 166 224 232 214 183 215 176 140 155
228 313 343 328 309 297 298 315 331 347 351 6 41 49 45 31 16 17 3 6 5 353 351 11 21 3 261 186 211 214 224 195 172 169 185 196 230 255 262 202 120 109 87 111
97 81 39 334 315 312 321 326 325 317 31 46 50 42 26 7 18 19 10 16 359 2 15 18 14 9 16 33 326 228 180 159 147 141 165 207 143 82 53 76 108 103 97 84
84 65 39 5 351 344 335 334 352 74 88 75 63 36 19 5 15 23 28 35 33 26 16 10 14 24 40 34 324 251 118 100 93 100 91 85 81 76 71 59 59 61 61 47
77 54 35 23 10 1 4 17 51 90 109 108 70 54 66 46 36 45 52 55 53 30 8 21 45 46 36 20 7 28 70 80 88 99 107 107 100 84 69 59 57 69 75 56
70 50 34 23 13 16 7 8 33 79 107 131 142 82 61 36 15 40 77 68 74 51 26 39 47 42 26 2 7 35 53 60 61 61 64 73 77 73 54 48 38 25 42 50
63 42 28 10 6 26 22 4 14 62 105 114 103 87 63 33 72 79 85 92 72 69 57 65 60 29 359 352 17 44 60 60 52 46 46 56 64 62 51 43 33 22 26 32
50 14 0 349 12 29 81 252 243 213 158 94 99 113 116 109 115 88 83 92 98 96 88 113 138 3 353 358 23 38 49 55 48 40 33 32 46 56 58 50 41 37 32 27
274 258 2 336 347 318 270 254 269 117 108 92 47 57 103 109 102 95 95 104 100 108 98 118 153 168 112 327 360 41 59 65 52 42 40 33 33 34 37 45 40 39 37 32
253 203 189 215 244 267 258 239 269 322 340 61 45 56 63 75 91 95 89 89 105 123 112 86 75 81 27 354 46 62 61 62 51 29 26 33 32 24 29 37 28 32 38 34
Height
1447 1442 1440 1441 1439 1438 1441 1441 1446 1444 1444 1443 1443 1445 1447 1451 1454 1458 1461 1464 1466 1468 1471 1473 1474 1475 1477 1478 1480 1481 1482 1484 1485 1486 1488 1490 1491 1493 1494 1496 1497 1499 1500 1502
1453 1443 1440 1441 1437 1436 1437 1437 1438 1439 1442 1440 1444 1447 1449 1452 1455 1458 1462 1465 1466 1468 1470 1471 1473 1474 1475 1477 1478 1479 1480 1481 1482 1484 1485 1487 1488 1490 1491 1492 1494 1495 1496 1498
1460 1447 1443 1449 1439 1437 1437 1434 1437 1442 1443 1442 1445 1449 1451 1453 1455 1459 1462 1464 1465 1468 1469 1470 1472 1473 1474 1475 1476 1477 1478 1479 1480 1482 1483 1484 1486 1487 1488 1489 1490 1491 1493 1494
1461 1458 1466 1447 1431 1432 1436 1435 1435 1438 1441 1444 1447 1450 1452 1454 1457 1459 1462 1464 1465 1467 1468 1470 1471 1472 1473 1474 1475 1475 1476 1477 1478 1479 1480 1482 1483 1483 1484 1485 1486 1487 1488 1490
1462 1461 1454 1442 1435 1436 1440 1443 1441 1442 1444 1447 1449 1451 1453 1455 1457 1459 1461 1463 1465 1467 1467 1469 1470 1471 1471 1472 1471 1473 1474 1474 1475 1476 1477 1478 1479 1480 1481 1482 1483 1484 1485 1485
1462 1465 1462 1448 1438 1437 1440 1449 1446 1447 1449 1450 1451 1454 1456 1457 1458 1459 1461 1463 1464 1465 1466 1467 1468 1469 1470 1470 1470 1470 1471 1472 1473 1474 1474 1475 1476 1477 1478 1479 1480 1481 1481 1482
1461 1462 1451 1442 1441 1441 1453 1457 1451 1451 1452 1454 1455 1457 1458 1458 1459 1460 1461 1463 1463 1464 1464 1465 1466 1467 1467 1468 1468 1468 1468 1469 1470 1471 1472 1472 1473 1473 1474 1475 1476 1478 1478 1479
1459 1462 1459 1447 1445 1450 1455 1453 1453 1454 1455 1456 1457 1457 1457 1457 1458 1459 1461 1462 1462 1463 1463 1463 1464 1464 1465 1465 1465 1465 1466 1466 1466 1467 1468 1469 1470 1470 1471 1472 1473 1474 1475 1476
1456 1458 1455 1453 1453 1455 1455 1454 1454 1455 1455 1456 1456 1457 1457 1457 1457 1458 1459 1460 1461 1461 1461 1462 1462 1462 1462 1463 1463 1463 1463 1463 1464 1465 1465 1466 1467 1467 1468 1469 1470 1472 1473 1473
1455 1453 1454 1455 1456 1457 1457 1456 1455 1455 1456 1456 1456 1456 1456 1455 1456 1457 1458 1458 1459 1459 1460 1460 1460 1460 1460 1461 1460 1460 1460 1460 1461 1461 1463 1464 1465 1465 1466 1467 1468 1469 1470 1471
1455 1455 1456 1456 1457 1458 1457 1457 1457 1455 1455 1456 1455 1455 1454 1454 1455 1455 1456 1457 1457 1457 1458 1458 1458 1458 1458 1458 1458 1458 1458 1458 1458 1459 1461 1461 1462 1464 1464 1465 1466 1467 1467 1468
1455 1455 1456 1456 1457 1458 1458 1457 1456 1455 1454 1454 1454 1454 1454 1454 1454 1454 1455 1455 1455 1456 1456 1456 1455 1455 1455 1455 1455 1456 1455 1456 1457 1458 1458 1459 1460 1461 1462 1463 1464 1464 1465 1466
1455 1455 1456 1455 1456 1456 1456 1456 1455 1455 1454 1453 1453 1453 1453 1453 1453 1453 1453 1453 1454 1454 1453 1453 1453 1453 1453 1453 1453 1454 1454 1454 1455 1456 1457 1457 1458 1459 1459 1461 1462 1462 1463 1463
1455 1455 1455 1455 1455 1455 1455 1454 1454 1453 1452 1452 1452 1452 1452 1453 1453 1453 1453 1452 1452 1452 1451 1451 1450 1451 1451 1451 1451 1451 1452 1452 1453 1454 1455 1455 1456 1456 1457 1458 1459 1459 1460 1461
1454 1455 1455 1454 1454 1454 1454 1453 1452 1452 1451 1451 1451 1451 1451 1452 1452 1452 1452 1451 1450 1450 1449 1448 1448 1448 1448 1448 1449 1449 1450 1451 1452 1452 1453 1453 1454 1454 1455 1456 1457 1458 1458 1458
1453 1453 1453 1453 1453 1453 1452 1452 1451 1451 1451 1450 1450 1451 1451 1451 1451 1451 1450 1450 1449 1448 1447 1446 1446 1446 1446 1446 1446 1447 1448 1449 1450 1450 1451 1452 1452 1453 1453 1454 1455 1455 1456 1456
1452 1452 1452 1452 1452 1452 1452 1452 1451 1451 1450 1450 1450 1450 1450 1450 1450 1450 1450 1449 1448 1446 1446 1445 1445 1445 1444 1445 1445 1446 1447 1448 1448 1449 1450 1451 1452 1452 1452 1452 1453 1454 1454 1454
1451 1452 1452 1452 1452 1452 1451 1451 1451 1450 1450 1450 1450 1450 1450 1450 1450 1450 1449 1449 1448 1447 1446 1445 1444 1444 1444 1444 1445 1445 1446 1447 1448 1449 1449 1450 1450 1451 1451 1452 1452 1453 1453 1453
1450 1451 1451 1451 1452 1452 1451 1451 1451 1450 1450 1450 1449 1449 1450 1450 1450 1450 1450 1449 1448 1447 1446 1445 1444 1444 1444 1444 1445 1445 1446 1447 1448 1449 1449 1449 1449 1450 1451 1451 1451 1451 1451 1452
1450 1451 1451 1451 1451 1451 1450 1450 1450 1450 1451 1451 1451 1450 1451 1451 1451 1450 1450 1450 1449 1448 1447 1446 1445 1444 1444 1444 1445 1446 1446 1447 1448 1448 1448 1449 1449 1450 1450 1450 1450 1450 1450 1450
1451 1451 1451 1451 1451 1450 1450 1450 1450 1450 1450 1451 1451 1451 1451 1451 1451 1451 1450 1450 1450 1449 1448 1447 1446 1445 1445 1445 1445 1446 1447 1447 1447 1448 1448 1448 1449 1449 1449 1449 1449 1449 1449 1449
1451 1452 1452 1451 1451 1450 1450 1450 1450 1450 1450 1451 1451 1451 1451 1451 1451 1451 1451 1451 1450 1449 1449 1448 1447 1446 1445 1445 1446 1446 1447 1447 1447 1447 1448 1448 1448 1448 1448 1448 1448 1448 1448 1448
1452 1452 1452 1452 1452 1451 1451 1450 1450 1450 1450 1450 1451 1451 1451 1451 1451 1451 1451 1451 1450 1450 1449 1449 1448 1447 1446 1446 1446 1446 1446 1446 1447 1447 1447 1447 1448 1448 1448 1448 1448 1448 1447 1447
1452 1453 1453 1452 1452 1451 1451 1451 1451 1451 1451 1451 1451 1451 1451 1451 1451 1451 1451 1450 1450 1449 1449 1449 1449 1448 1447 1447 1447 1447 1447 1447 1447 1447 1447 1447 1447 1447 1447 1447 1447 1447 1446 1446
1453 1453 1452 1452 1452 1452 1451 1451 1451 1451 1451 1451 1451 1451 1452 1451 1451 1451 1450 1450 1450 1450 1450 1450 1449 1449 1448 1448 1448 1447 1447 1447 1447 1447 1447 1447 1447 1447 1447 1447 1447 1446 1445 1444
1452 1452 1452 1452 1452 1452 1451 1452 1451 1452 1452 1451 1451 1451 1451 1451 1451 1451 1451 1451 1451 1450 1450 1450 1450 1449 1449 1448 1448 1448 1448 1447 1447 1447 1447 1447 1447 1447 1447 1446 1446 1445 1444 1444
1452 1452 1451 1451 1451 1451 1451 1451 1451 1451 1451 1451 1451 1451 1451 1451 1451 1451 1451 1451 1451 1451 1450 1450 1450 1449 1449 1449 1448 1448 1448 1447 1447 1447 1446 1446 1446 1446 1446 1445 1445 1444 1443 1442